TimeEDT,TemperatureF,Dew PointF,Humidity,Sea Level PressureIn,VisibilityMPH,Wind Direction,Wind SpeedMPH,Gust SpeedMPH,PrecipitationIn,Events,Conditions,WindDirDegrees,DateUTC
12:52 AM,73.9,69.1,85,29.57,10.0,South,6.9,-,N/A,,Overcast,170,2013-06-29 04:52:00
1:52 AM,73.0,69.1,87,29.54,10.0,SSW,3.5,-,N/A,,Partly Cloudy,200,2013-06-29 05:52:00
2:52 AM,73.0,69.1,87,29.54,10.0,SW,8.1,-,N/A,,Partly Cloudy,220,2013-06-29 06:52:00
3:52 AM,73.0,69.1,87,29.55,10.0,SW,8.1,-,N/A,,Mostly Cloudy,220,2013-06-29 07:52:00
4:52 AM,73.9,70.0,87,29.56,10.0,South,3.5,-,N/A,,Overcast,190,2013-06-29 08:52:00
5:52 AM,73.0,69.1,87,29.57,10.0,SSW,5.8,-,N/A,,Overcast,210,2013-06-29 09:52:00
6:02 AM,73.4,69.8,88,29.57,10.0,SSW,5.8,-,N/A,,Overcast,210,2013-06-29 10:02:00
6:52 AM,73.0,69.1,87,29.58,10.0,SSW,4.6,-,N/A,,Overcast,200,2013-06-29 10:52:00
7:13 AM,73.4,69.8,88,29.59,10.0,South,4.6,-,N/A,,Overcast,190,2013-06-29 11:13:00
7:52 AM,73.0,68.0,84,29.60,10.0,SSW,4.6,-,N/A,,Mostly Cloudy,210,2013-06-29 11:52:00
8:52 AM,75.0,69.1,82,29.62,10.0,SW,8.1,-,N/A,,Mostly Cloudy,230,2013-06-29 12:52:00
9:38 AM,78.8,69.8,74,29.62,10.0,WSW,6.9,-,N/A,,Mostly Cloudy,240,2013-06-29 13:38:00
9:52 AM,78.1,69.1,74,29.62,10.0,WSW,6.9,-,N/A,,Mostly Cloudy,240,2013-06-29 13:52:00
10:52 AM,82.0,68.0,62,29.63,10.0,Variable,5.8,-,N/A,,Scattered Clouds,0,2013-06-29 14:52:00
11:52 AM,82.9,66.0,56,29.62,10.0,West,10.4,-,N/A,,Scattered Clouds,280,2013-06-29 15:52:00
12:52 PM,84.9,64.9,51,29.62,10.0,WNW,8.1,-,N/A,,Mostly Cloudy,290,2013-06-29 16:52:00
1:52 PM,81.0,71.1,72,29.63,10.0,ESE,9.2,-,N/A,,Mostly Cloudy,110,2013-06-29 17:52:00
2:52 PM,80.1,71.1,74,29.62,10.0,SE,13.8,-,N/A,,Mostly Cloudy,140,2013-06-29 18:52:00
3:52 PM,82.9,72.0,69,29.63,10.0,SSE,13.8,20.7,N/A,,Mostly Cloudy,150,2013-06-29 19:52:00
4:52 PM,82.9,72.0,69,29.63,10.0,SE,11.5,18.4,N/A,,Mostly Cloudy,140,2013-06-29 20:52:00
5:52 PM,82.9,72.0,69,29.62,10.0,SE,10.4,-,N/A,,Mostly Cloudy,140,2013-06-29 21:52:00
6:52 PM,82.9,73.0,72,29.63,10.0,SE,10.4,-,N/A,,Clear,140,2013-06-29 22:52:00
7:52 PM,81.0,72.0,74,29.66,10.0,South,8.1,-,N/A,,Clear,180,2013-06-29 23:52:00
8:52 PM,80.1,72.0,76,29.68,10.0,South,9.2,-,N/A,,Clear,190,2013-06-30 00:52:00
9:52 PM,78.1,72.0,81,29.69,10.0,SSW,5.8,-,N/A,,Clear,200,2013-06-30 01:52:00
10:52 PM,79.0,72.0,79,29.70,10.0,SSW,5.8,-,N/A,,Clear,210,2013-06-30 02:52:00
11:52 PM,77.0,71.1,82,29.72,10.0,South,5.8,-,N/A,,Clear,180,2013-06-30 03:52:00